Retour au catalogue

DIADEME 2

ActifScienceLEO
NORAD 2680·PAYLOAD·🇫🇷 France

Lancé Feb 15, 1967 depuis Hammaguir Space Track Range

Loading…

Prochains Passages (prochaines 24 heures)

TLE

FraisSource: Space-Track

Époque: Sep 14, 2026, 18:04 UTC

1 02680U 67014A   26257.75302917  .00000835  00000-0  35674-3 0  9994
2 02680  39.4399  59.2259 0700679 194.8364 163.0801 13.42204140888005

Suivez DIADEME 2 en temps réel avec AllMySat

Download on the App Store